This demonstration page uses our WeatherBlox Daily Observations layout. Learn more.

Left ArrowRight Arrow

38.20091, -84.87328

Hourly Observations for February 16, 2022

Temp ( °F °C ) Dew Point ( °F °C ) Humidity (%) Winds ( mph kmh ) Pressure ( in mb ) Visibility ( mi km ) Precip ( " mm )
12:53 am 00:53 Clear 49 9.4 28 -2.2 44 44 S 10 17 30.26 1025 10 16 0.00 0.00
1:53 am 01:53 Clear 46 7.8 28 -2.2 50 50 SSE 7 11 30.25 1025 10 16 0.00 0.00
2:53 am 02:53 Clear 47 8.3 28 -2.2 48 48 S 10 17 30.24 1024 10 16 0.00 0.00
3:53 am 03:53 Clear 46 7.8 27 -2.8 47 47 SSE 7 11 30.24 1024 10 16 0.00 0.00
4:53 am 04:53 Clear 43 6.1 27 -2.8 53 53 SSE 6 9 30.25 1024 10 16 0.00 0.00
5:53 am 05:53 Clear 44 6.7 27 -2.8 51 51 SE 6 9 30.26 1025 10 16 0.00 0.00
6:53 am 06:53 Clear 43 6.1 27 -2.8 53 53 SSE 6 9 30.27 1025 10 16 0.00 0.00
7:53 am 07:53 Sunny 44 6.7 28 -2.2 53 53 S 8 13 30.28 1025 10 16 0.00 0.00
8:53 am 08:53 Sunny 48 8.9 29 -1.7 48 48 S 10 17 30.28 1025 10 16 0.00 0.00
9:53 am 09:53 Sunny 55 12.8 32 0 42 42 S 18 30 30.25 1025 10 16 0.00 0.00
10:53 am 10:53 Sunny 60 15.6 36 2.2 41 41 SSW 30 48 30.24 1024 10 16 0.00 0.00
11:53 am 11:53 Mostly Cloudy 62 16.7 38 3.3 41 41 S 23 37 30.23 1024 10 16 0.00 0.00
12:53 pm 12:53 Mostly Cloudy 64 17.8 40 4.4 41 41 S 17 28 30.19 1023 10 16 0.00 0.00
1:53 pm 13:53 Partly Cloudy 64 17.8 40 4.4 41 41 SSW 20 31 30.15 1021 10 16 0.00 0.00
2:53 pm 14:53 Mostly Cloudy 66 18.9 40 4.4 39 39 S 21 33 30.11 1020 10 16 0.00 0.00
3:53 pm 15:53 Cloudy 66 18.9 39 3.9 37 37 SSW 22 35 30.10 1019 10 16 0.00 0.00
4:53 pm 16:53 Mostly Cloudy 65 18.3 40 4.4 40 40 S 17 28 30.09 1019 10 16 0.00 0.00
5:53 pm 17:53 Cloudy 65 18.3 40 4.4 40 40 S 18 30 30.08 1019 10 16 0.00 0.00
6:53 pm 18:53 Mostly Clear 63 17.2 41 5 45 45 S 10 17 30.11 1020 10 16 0.00 0.00
7:53 pm 19:53 Cloudy 62 16.7 42 5.6 48 48 S 9 15 30.13 1020 10 16 0.00 0.00
8:53 pm 20:53 Cloudy 61 16.1 43 6.1 52 52 S 12 19 30.12 1020 10 16 0.00 0.00
9:53 pm 21:53 Mostly Cloudy 61 16.1 43 6.1 52 52 S 16 26 30.11 1020 10 16 0.00 0.00
10:53 pm 22:53 Cloudy 59 15 43 6.1 56 56 S 13 20 30.09 1019 10 16 0.00 0.00
11:53 pm 23:53 Mostly Cloudy 59 15 44 6.7 58 58 S 10 17 30.05 1018 10 16 0.00 0.00

Powered by AerisWeather